Weather History for KHDE - November, 2012

Change the Weather History Date:

Tuesday, November 6, 2012

  Actual Average Record
Temperature  
Mean Temperature 48 °F -  
Max Temperature 61 °F 53 °F 75 °F (2004)
Min Temperature 36 °F 29 °F 9 °F (1959)
Degree Days  
Heating Degree Days 16    
Moisture  
Dew Point 26 °F    
Average Humidity 49    
Maximum Humidity 83    
Minimum Humidity 19    
Precipitation  
Precipitation 0.00 in - - ()
Sea Level Pressure  
Sea Level Pressure 30.11 in    
Wind  
Wind Speed 10 mph (NW)    
Max Wind Speed 24 mph    
Max Gust Speed 32 mph    
Visibility 10 miles    
Events      
Averages and records for this station are not official NWS values.
T = Trace of Precipitation, MM = Missing Value Source: NWS Daily Summary

Daily Weather History Graph

Daily Weather History Graph

Search for Another Location

Airport or City:

Trip Planner

Search our weather history database for the weather conditions in past years. The results will help you decide how hot, cold, wet, or windy it might be!

Date:

Astronomy

Nov. 06, 2012 Rise Set
Actual Time 7:13 AM CST 5:27 PM CST
Civil Twilight 6:44 AM CST 5:56 PM CST
Nautical Twilight 6:12 AM CST 6:28 PM CST
Astronomical Twilight 5:40 AM CST 7:00 PM CST
Moon No Moon Rise 1:06 PM CST (11/6)
Length of Visible Light 11h 11m
Length of Day
10h 14m
Waning Gibbous, 53% of the Moon is Illuminated
Nov 6
Waning Gibbous
Nov 6
Last Quarter
Nov 13
New
Nov 20
First Quarter
Nov 28
Full

Hourly Weather History & Observations

Time (CST) Temp. Windchill Dew Point Humidity Pressure Visibility Wind Dir Wind Speed Gust Speed Precip Events Conditions
12:15 AM 39.7 °F 33.2 °F 33.1 °F 77% 30.03 in 10.0 mi South 10.4 mph - N/A   Scattered Clouds
12:35 AM 40.1 °F 34.1 °F 33.3 °F 77% 30.02 in 10.0 mi South 9.2 mph - N/A   Scattered Clouds
12:55 AM 40.1 °F 35.3 °F 33.3 °F 77% 30.01 in 10.0 mi South 6.9 mph - N/A   Scattered Clouds
1:15 AM 40.8 °F 33.7 °F 33.3 °F 74% 30.00 in 10.0 mi SSW 12.7 mph - N/A   Clear
1:35 AM 41.0 °F 35.2 °F 33.1 °F 73% 30.00 in 10.0 mi South 9.2 mph - N/A   Scattered Clouds
1:55 AM 41.0 °F 35.8 °F 32.9 °F 73% 30.00 in 10.0 mi South 8.1 mph - N/A   Clear
2:15 AM 40.1 °F 34.7 °F 32.5 °F 74% 30.00 in 10.0 mi SSW 8.1 mph - N/A   Clear
2:35 AM 39.7 °F 36.5 °F 32.7 °F 76% 30.01 in 10.0 mi WSW 4.6 mph - N/A   Scattered Clouds
2:55 AM 40.5 °F 38.4 °F 32.7 °F 74% 30.04 in 10.0 mi West 3.5 mph - N/A   Mostly Cloudy
3:15 AM 39.2 °F 35.9 °F 32.4 °F 76% 30.02 in 10.0 mi NW 4.6 mph - N/A   Mostly Cloudy
3:35 AM 37.2 °F 33.6 °F 32.0 °F 81% 30.02 in 10.0 mi WNW 4.6 mph - N/A   Scattered Clouds
3:55 AM 37.6 °F 33.1 °F 32.0 °F 80% 30.02 in 10.0 mi NW 5.8 mph - N/A   Scattered Clouds
4:15 AM 36.3 °F 32.5 °F 31.5 °F 83% 30.01 in 10.0 mi West 4.6 mph - N/A   Scattered Clouds
4:35 AM 37.4 °F - 32.2 °F 81% 30.02 in 10.0 mi Calm Calm - N/A   Mostly Cloudy
4:55 AM 39.2 °F 35.9 °F 32.7 °F 78% 30.03 in 10.0 mi West 4.6 mph - N/A   Overcast
5:15 AM 40.5 °F 35.1 °F 32.9 °F 74% 30.03 in 10.0 mi WNW 8.1 mph - N/A   Mostly Cloudy
5:35 AM 42.8 °F 39.3 °F 34.0 °F 71% 30.04 in 10.0 mi WNW 5.8 mph - N/A   Mostly Cloudy
5:55 AM 43.0 °F 37.7 °F 34.2 °F 71% 30.05 in 10.0 mi NW 9.2 mph - N/A   Scattered Clouds
6:15 AM 43.0 °F 36.8 °F 34.9 °F 73% 30.06 in 10.0 mi NW 11.5 mph - N/A   Scattered Clouds
6:35 AM 45.5 °F 39.9 °F 36.3 °F 70% 30.08 in 10.0 mi NW 11.5 mph 17.3 mph N/A   Mostly Cloudy
6:55 AM 45.5 °F 40.3 °F 37.4 °F 73% 30.09 in 10.0 mi NNW 10.4 mph - N/A   Scattered Clouds
7:15 AM 45.1 °F 39.5 °F 37.6 °F 75% 30.10 in 10.0 mi NNW 11.5 mph 16.1 mph N/A   Clear
7:35 AM 45.0 °F 39.7 °F 37.8 °F 76% 30.12 in 10.0 mi NNW 10.4 mph - N/A   Clear
7:55 AM 44.1 °F 38.1 °F 37.4 °F 77% 30.13 in 10.0 mi NNW 11.5 mph - N/A   Clear
8:15 AM 45.1 °F 39.5 °F 37.4 °F 74% 30.14 in 10.0 mi NNW 11.5 mph - N/A   Clear
8:35 AM 45.7 °F 40.2 °F 36.5 °F 70% 30.16 in 10.0 mi NNW 11.5 mph - N/A   Clear
8:55 AM 48.7 °F - 33.1 °F 55% 30.16 in 10.0 mi NNW 12.7 mph 17.3 mph N/A   Clear
9:15 AM 50.9 °F - 32.0 °F 48% 30.16 in 10.0 mi NNW 15.0 mph 21.9 mph N/A   Clear
9:35 AM 51.1 °F - 32.4 °F 49% 30.17 in 10.0 mi NNW 19.6 mph 25.3 mph N/A   Clear
9:55 AM 52.3 °F - 33.1 °F 48% 30.18 in 10.0 mi NNW 15.0 mph 21.9 mph N/A   Clear
10:15 AM 53.4 °F - 32.5 °F 45% 30.18 in 10.0 mi NNW 17.3 mph 20.7 mph N/A   Clear
10:35 AM 54.9 °F - 30.0 °F 39% 30.17 in 10.0 mi NNW 18.4 mph 25.3 mph N/A   Clear
10:55 AM 56.1 °F - 28.2 °F 34% 30.17 in 10.0 mi NNW 19.6 mph 23.0 mph N/A   Clear
11:15 AM 56.7 °F - 25.9 °F 31% 30.17 in 10.0 mi NNW 16.1 mph 27.6 mph N/A   Clear
11:35 AM 57.4 °F - 25.7 °F 30% 30.16 in 10.0 mi North 17.3 mph 23.0 mph N/A   Clear
11:55 AM 58.3 °F - 26.2 °F 29% 30.16 in 10.0 mi NNW 16.1 mph 21.9 mph N/A   Clear
12:15 PM 59.0 °F - 24.6 °F 27% 30.15 in 10.0 mi NNW 19.6 mph 27.6 mph N/A   Clear
12:35 PM 59.2 °F - 24.6 °F 27% 30.14 in 10.0 mi NNW 17.3 mph 28.8 mph N/A   Clear
12:55 PM 59.9 °F - 23.5 °F 25% 30.13 in 10.0 mi NNW 17.3 mph 26.5 mph N/A   Clear
1:15 PM 60.3 °F - 23.0 °F 24% 30.13 in 10.0 mi NW 19.6 mph 27.6 mph N/A   Clear
1:35 PM 60.4 °F - 21.7 °F 23% 30.12 in 10.0 mi NNW 19.6 mph 26.5 mph N/A   Clear
1:55 PM 60.6 °F - 21.0 °F 22% 30.12 in 10.0 mi NW 24.2 mph 32.2 mph N/A   Clear
2:15 PM 60.8 °F - 20.7 °F 21% 30.12 in 10.0 mi NW 20.7 mph 31.1 mph N/A   Clear
2:35 PM 61.0 °F - 19.9 °F 21% 30.11 in 10.0 mi NNW 17.3 mph 26.5 mph N/A   Clear
2:55 PM 61.0 °F - 19.6 °F 20% 30.11 in 10.0 mi NW 23.0 mph 29.9 mph N/A   Clear
3:15 PM 61.0 °F - 19.0 °F 20% 30.11 in 10.0 mi NW 24.2 mph 29.9 mph N/A   Clear
3:35 PM 61.0 °F - 18.5 °F 19% 30.12 in 10.0 mi NW 20.7 mph 28.8 mph N/A   Clear
3:55 PM 60.8 °F - 18.3 °F 19% 30.12 in 10.0 mi NNW 18.4 mph 27.6 mph N/A   Clear
4:15 PM 60.3 °F - 18.5 °F 20% 30.12 in 10.0 mi NNW 12.7 mph 26.5 mph N/A   Clear
4:35 PM 59.7 °F - 18.9 °F 21% 30.12 in 10.0 mi NNW 17.3 mph 23.0 mph N/A   Clear
4:55 PM 58.6 °F - 19.4 °F 22% 30.12 in 10.0 mi NNW 12.7 mph - N/A   Clear
5:15 PM 56.5 °F - 19.9 °F 24% 30.12 in 10.0 mi NNW 10.4 mph - N/A   Clear
5:35 PM 53.2 °F - 19.9 °F 27% 30.12 in 10.0 mi NNW 6.9 mph - N/A   Clear
5:55 PM 50.7 °F - 19.8 °F 30% 30.13 in 10.0 mi NNW 8.1 mph - N/A   Clear
6:15 PM 49.1 °F - 19.4 °F 31% 30.13 in 10.0 mi NNW 9.2 mph - N/A   Clear
6:35 PM 49.1 °F - 19.4 °F 31% 30.14 in 10.0 mi NNW 9.2 mph - N/A   Clear
6:55 PM 46.6 °F - 19.0 °F 33% 30.14 in 10.0 mi NNW 6.9 mph - N/A   Clear
7:15 PM 43.2 °F 39.7 °F 18.9 °F 38% 30.15 in 10.0 mi NNW 5.8 mph - N/A   Clear
7:35 PM 43.0 °F 39.5 °F 19.0 °F 38% 30.15 in 10.0 mi NNW 5.8 mph - N/A   Clear
7:55 PM 43.5 °F 39.4 °F 19.4 °F 38% 30.15 in 10.0 mi NNW 6.9 mph - N/A   Clear
8:15 PM 38.8 °F 34.6 °F 18.5 °F 44% 30.15 in 10.0 mi WNW 5.8 mph - N/A   Clear
8:35 PM 38.5 °F 34.1 °F 19.0 °F 46% 30.15 in 10.0 mi WNW 5.8 mph - N/A   Clear
8:55 PM 38.1 °F 33.7 °F 19.4 °F 47% 30.15 in 10.0 mi WNW 5.8 mph - N/A   Clear
9:15 PM 36.9 °F 32.2 °F 19.0 °F 49% 30.15 in 10.0 mi WNW 5.8 mph - N/A   Clear
9:35 PM 39.0 °F 35.7 °F 19.2 °F 45% 30.15 in 10.0 mi WNW 4.6 mph - N/A   Clear
9:55 PM 37.4 °F 32.8 °F 19.2 °F 48% 30.15 in 10.0 mi West 5.8 mph - N/A   Clear
10:15 PM 37.0 °F 31.6 °F 19.6 °F 49% 30.15 in 10.0 mi West 6.9 mph - N/A   Clear
10:35 PM 39.0 °F 34.0 °F 19.9 °F 46% 30.16 in 10.0 mi West 6.9 mph - N/A   Clear
10:55 PM 39.0 °F 34.8 °F 20.3 °F 47% 30.16 in 10.0 mi West 5.8 mph - N/A   Clear
11:15 PM 37.4 °F 32.8 °F 19.9 °F 49% 30.15 in 10.0 mi WNW 5.8 mph - N/A   Clear
11:35 PM 36.9 °F 32.2 °F 19.9 °F 50% 30.15 in 10.0 mi NW 5.8 mph - N/A   Clear
11:55 PM 36.7 °F 32.0 °F 20.3 °F 52% 30.15 in 10.0 mi NNW 5.8 mph - N/A   Clear